This is the latest recevied weather packets stored in our database for station/object GOLDWX. If no packets are shown the sender has not sent any weather packets the latest 10 day(s).
| Time | Temp. | Humidity | Pressure | Rain* | Wind** | Luminosity | Snow |
|---|---|---|---|---|---|---|---|
| 1778032783 | 18.89° C | 27% | 1011.2 hPa | 0 mm | - | - | - |
| 1778032482 | 18.89° C | 26% | 1011.1 hPa | 0 mm | - | - | - |
| 1778031880 | 19.44° C | 26% | 1010.9 hPa | 0 mm | - | - | - |
| 1778031579 | 19.44° C | 25% | 1010.8 hPa | 0 mm | - | - | - |
| 1778030977 | 20° C | 22% | 1010.8 hPa | 0 mm | - | - | - |
| 1778030676 | 20° C | 21% | 1010.8 hPa | 0 mm | - | - | - |
| 1778030075 | 20° C | 21% | 1010.7 hPa | 0 mm | - | - | - |
| 1778029774 | 20.56° C | 21% | 1010.7 hPa | 0 mm | - | - | - |
| 1778029172 | 20.56° C | 20% | 1010.7 hPa | 0 mm | - | - | - |
| 1778028871 | 21.11° C | 19% | 1010.6 hPa | 0 mm | - | - | - |
| 1778028270 | 21.67° C | 20% | 1010.6 hPa | 0 mm | - | - | - |
| 1778027969 | 21.67° C | 20% | 1010.5 hPa | 0 mm | - | - | - |
| 1778027367 | 22.78° C | 20% | 1010.4 hPa | 0 mm | - | - | - |
| 1778027066 | 22.78° C | 19% | 1010.4 hPa | 0 mm | - | - | - |
| 1778026464 | 23.33° C | 20% | 1010.3 hPa | 0 mm | - | - | - |
| 1778026164 | 23.33° C | 19% | 1010.3 hPa | 0 mm | - | - | - |
| 1778025562 | 23.33° C | 19% | 1010.3 hPa | 0 mm | - | - | - |
| 1778025262 | 23.33° C | 20% | 1010.2 hPa | 0 mm | - | - | - |
| 1778024659 | 22.22° C | 21% | 1010.2 hPa | 0 mm | - | - | - |
| 1778024359 | 21.67° C | 22% | 1010.3 hPa | 0 mm | - | - | - |
| 1778023757 | 21.11° C | 21% | 1010.3 hPa | 0 mm | - | - | - |
| 1778023456 | 21.11° C | 22% | 1010.4 hPa | 0 mm | - | - | - |
| 1778022854 | 20.56° C | 21% | 1010.5 hPa | 0 mm | - | - | - |
| 1778022554 | 21.11° C | 22% | 1010.4 hPa | 0 mm | - | - | - |
| 1778021650 | 21.11° C | 22% | 1010.5 hPa | 0 mm | - | - | - |
* Rain since midnight (hover to see other rain measurements)
** Current wind speed in m/s (hover to see current wind gust speed)